Location: ????? ??????
(37.8317°N, 23.8750°E)
Time: 13:30:42
(UTC+00:00)

Feng Yun 1-1 Rocket - Pass Details

Date: 20 January 2021
Orbit: 830 x 933 km, 99.2° (Epoch: 03 March)

Event Time Altitude Azimuth Distance (km) Brightness Sun altitude
Rises 16:06:27 0° 148° (SSE) 3,361 7.2 -6.6°
Reaches altitude 10° 16:08:51 10° 142° (SE) 2,436 6.4 -7.1°
Maximum altitude 16:13:58 47° 70° (ENE) 1,109 4.4 -8.0°
Drops below altitude 10° 16:19:13 10° 358° (N) 2,492 6.5 -9.0°
Sets 16:21:41 0° 353° (N) 3,446 7.3 -9.5°
